Regional Weather Roundup
Issued by NWS

Home | Current Version | Previous Version | Text Only | Print | Product List | Glossary On
Versions: 1 2 3 4 5 6 7 8 9 10 11 12 13 14 15 16 17 18 19 20 21 22 23 24 25 26 27 28 29 30 31 32 33 34 35 36 37 38 39 40 41 42 43 44 45 46 47 48 49 50
000
ASUS43 KTOP 180908
RWRKS

WEATHER ROUNDUP FOR KANSAS
NATIONAL WEATHER SERVICE GOODLAND KS
300 AM CST THU DEC 18 2014

NOTE:  "FAIR" INDICATES FEW OR NO CLOUDS BELOW 12,000 FEET WITH NO
SIGNIFICANT WEATHER AND/OR OBSTRUCTIONS TO VISIBILITY.

KSZ001>006-013>018-027>032-041>047-181000-
NORTHWEST KANSAS

CITY           SKY/WX    TMP DP  RH WIND       PRES   REMARKS
GOODLAND       CLOUDY    22  20  92 CALM      30.04S
HAYS           CLOUDY    27  18  69 NE6       30.12R
HILL CITY      CLOUDY    26  24  92 E7        30.13S
RUSSELL        CLOUDY    26  25  96 NE7       30.12S
$$

KSZ061>065-074>080-084>089-181000-
SOUTHWEST KANSAS

CITY           SKY/WX    TMP DP  RH WIND       PRES   REMARKS
DODGE CITY     CLOUDY    29  26  89 E7        30.07S
ELKHART          N/A     31  23  72 NW9         N/A
GARDEN CITY    CLOUDY    28  28 100 E7        30.05R
GREAT BEND     CLOUDY    28  23  80 E6        30.13S
LIBERAL        CLOUDY    36  32  87 SE5       30.05R VSB 1/2
PRATT          LGT SNOW  30  28  93 E3        30.11S
$$

KSZ066>073-081>083-090>101-181000-
SOUTHEAST KANSAS

CITY           SKY/WX    TMP DP  RH WIND       PRES   REMARKS
CHANUTE        LGT SNOW  31  30  96 E6        30.18S FOG
COFFEYVILLE    CLOUDY    33  33 100 E6        30.17F FOG
HUTCHINSON     LGT SNOW  30  27  88 CALM      30.14S FOG
MEDICINE LODGE   N/A     31  31 100 E3        30.11F
NEWTON         CLOUDY    28  23  80 E6        30.14S
PARSONS        CLOUDY    33  32  96 VRB5      30.18F FOG
WICHITA INTL   LGT SNOW  32  29  88 E5        30.14R FOG
WICHITA JABRA  LGT SNOW  30  29  96 E6        30.14R FOG
WICHITA MCCONL LGT SNOW  31  29  95 E7        30.14S FOG
WINFIELD       CLOUDY    32  32 100 E7        30.15S FOG
$$

KSZ007>012-019>026-033>040-048>060-102>105-181000-
NORTHEAST KANSAS

CITY           SKY/WX    TMP DP  RH WIND       PRES   REMARKS
CONCORDIA      SNOW      25  24  96 E3        30.18S VSB 1/2
EMPORIA        LGT SNOW  28  27  96 E7        30.17F FOG
LAWRENCE       CLOUDY    28  26  92 E5        30.24R FOG
MANHATTAN      LGT SNOW  27  26  96 NE6       30.20S FOG
MARYSVILLE     LGT SNOW  28  27  93 SE5       30.20R
OLATHE IND     LGT SNOW  28  26  92 E6        30.22R FOG
OLATHE EXE     LGT SNOW  28  27  96 E3        30.21S FOG
SALINA         LGT SNOW  29  26  89 NE5       30.18S FOG
TOPEKA BILLARD LGT SNOW  30  27  88 E6        30.23R FOG
TOPEKA FORBES  LGT SNOW  29  27  92 E5        30.20F FOG
$$



USA.gov is the U.S. government's official web portal to all federal, state and local government web resources and services.